Weather History for Grosse Ile, MI

Change the Weather History Date:

Wednesday, October 3, 2012

  Actual Average (KDTW) Record (KDTW)
Temperature  
Mean Temperature 64 °F 57 °F  
Max Temperature 69 °F 67 °F 89 °F (1953)
Min Temperature 60 °F 48 °F 24 °F (1974)
Degree Days  
Heating Degree Days 0 9  
Month to date heating degree days 25  
Since 1 July heating degree days 139  
Cooling Degree Days 0 1  
Month to date cooling degree days 3  
Year to date cooling degree days 798  
Growing Degree Days 14 (Base 50)    
Moisture  
Dew Point 59 °F    
Average Humidity 86    
Maximum Humidity 100    
Minimum Humidity 68    
Precipitation  
Precipitation 0.12 in 0.09 in 3.29 in (1954)
Month to date precipitation 0.27  
Year to date precipitation 25.97  
Snow  
Snow 0.00 in 0.00 in T in (1935)
Month to date snowfall 0.0  
Since 1 July snowfall 0.0  
Since 1 September snowfall 0.0  
Snow Depth -    
Sea Level Pressure  
Sea Level Pressure 29.99 in    
Wind  
Wind Speed 5 mph (South)    
Max Wind Speed 17 mph    
Max Gust Speed 21 mph    
Visibility 7 miles    
Events Fog , Rain    
T = Trace of Precipitation, MM = Missing Value Source: NWS Daily Summary

Daily Weather History Graph

Daily Weather History Graph

Search for Another Location

Airport:

Trip Planner

Search our weather history database for the weather conditions in past years. The results will help you decide how hot, cold, wet, or windy it might be!

Date:

Astronomy

Oct. 03, 2012 Rise Set
Actual Time 7:32 AM EDT 7:09 PM EDT
Civil Twilight 7:04 AM EDT 7:37 PM EDT
Nautical Twilight 6:32 AM EDT 8:10 PM EDT
Astronomical Twilight 5:59 AM EDT 8:42 PM EDT
Moon 8:57 PM EDT (10/3) 10:58 AM EDT (10/3)
Length of Visible Light 12h 33m
Length of Day
11h 37m
Waning Gibbous, 89% of the Moon is Illuminated
Oct 3
Waning Gibbous
Oct 8
Last Quarter
Oct 15
New
Oct 21
First Quarter
Oct 29
Full

Hourly Weather History & Observations

Time (EDT) Temp. Dew Point Humidity Pressure Visibility Wind Dir Wind Speed Gust Speed Precip Events Conditions
12:14 AM 60.8 °F 57.2 °F 88% 29.89 in 10.0 mi North 3.5 mph - N/A   Overcast
12:35 AM 60.8 °F 57.2 °F 88% 29.89 in 10.0 mi Calm Calm - N/A   Overcast
12:54 AM 60.8 °F 57.2 °F 88% 29.89 in 10.0 mi Calm Calm - N/A   Overcast
1:14 AM 60.8 °F 57.2 °F 88% 29.89 in 7.0 mi North 4.6 mph - N/A   Overcast
1:34 AM 60.8 °F 57.2 °F 88% 29.88 in 10.0 mi North 5.8 mph - N/A   Overcast
1:54 AM 60.8 °F 57.2 °F 88% 29.88 in 10.0 mi NNW 3.5 mph - N/A   Overcast
2:14 AM 60.8 °F 57.2 °F 88% 29.89 in 10.0 mi Calm Calm - N/A   Overcast
2:34 AM 60.8 °F 57.2 °F 88% 29.90 in 10.0 mi Calm Calm - N/A   Overcast
2:54 AM 60.8 °F 57.2 °F 88% 29.90 in 10.0 mi Calm Calm - N/A   Overcast
3:14 AM 62.6 °F 59.0 °F 88% 29.90 in 2.5 mi Calm Calm - 0.11 in Rain Heavy Rain
3:34 AM 60.8 °F 59.0 °F 94% 29.90 in 5.0 mi NNW 3.5 mph - 0.12 in   Overcast
3:54 AM 62.6 °F 59.0 °F 88% 29.90 in 5.0 mi Calm Calm - 0.12 in   Overcast
4:14 AM 60.8 °F 59.0 °F 94% 29.90 in 7.0 mi Calm Calm - N/A   Overcast
4:34 AM 62.6 °F 59.0 °F 88% 29.91 in 5.0 mi Calm Calm - N/A   Overcast
4:54 AM 62.6 °F 60.8 °F 94% 29.92 in 4.0 mi Calm Calm - N/A   Overcast
5:14 AM 62.6 °F 60.8 °F 94% 29.92 in 1.8 mi Calm Calm - N/A   Overcast
5:34 AM 62.6 °F 60.8 °F 94% 29.92 in 1.5 mi Calm Calm - N/A   Overcast
5:55 AM 62.6 °F 60.8 °F 94% 29.93 in 1.0 mi Calm Calm - N/A   Overcast
6:14 AM 62.6 °F 60.8 °F 94% 29.94 in 1.2 mi Calm Calm - N/A   Overcast
6:34 AM 62.6 °F 60.8 °F 94% 29.94 in 1.0 mi Calm Calm - N/A   Overcast
6:55 AM 60.8 °F 60.8 °F 100% 29.95 in 1.2 mi WSW 3.5 mph - N/A   Overcast
7:14 AM 60.8 °F 59.0 °F 94% 29.96 in 1.0 mi Calm Calm - N/A   Overcast
7:34 AM 60.8 °F 59.0 °F 94% 29.96 in 0.5 mi WSW 4.6 mph - N/A Fog Fog
7:55 AM 60.8 °F 59.0 °F 94% 29.97 in 0.8 mi Calm Calm - N/A   Overcast
8:14 AM 60.8 °F 59.0 °F 94% 29.97 in 1.0 mi Calm Calm - N/A   Overcast
8:34 AM 60.8 °F 59.0 °F 94% 29.97 in 1.2 mi Calm Calm - N/A   Overcast
8:54 AM 60.8 °F 60.8 °F 100% 29.98 in 1.5 mi Calm Calm - N/A   Overcast
9:14 AM 60.8 °F 60.8 °F 100% 29.98 in 1.5 mi Calm Calm - N/A   Overcast
9:34 AM 62.6 °F 60.8 °F 94% 30.00 in 1.8 mi Calm Calm - N/A   Overcast
9:54 AM 62.6 °F 60.8 °F 94% 30.00 in 1.5 mi South 3.5 mph - N/A   Overcast
10:14 AM 62.6 °F 60.8 °F 94% 30.00 in 1.8 mi South 4.6 mph - N/A   Overcast
10:34 AM 62.6 °F 60.8 °F 94% 30.00 in 1.8 mi SSE 4.6 mph - N/A   Overcast
10:54 AM 64.4 °F 62.6 °F 94% 30.00 in 2.0 mi South 6.9 mph - N/A   Overcast
11:14 AM 64.4 °F 62.6 °F 94% 30.01 in 2.0 mi South 6.9 mph - N/A   Overcast
11:35 AM 66.2 °F 62.6 °F 88% 30.00 in 4.0 mi SSW 4.6 mph - N/A   Overcast
11:54 AM 66.2 °F 60.8 °F 83% 30.00 in 10.0 mi SW 4.6 mph - N/A   Overcast
12:14 PM 66.2 °F 60.8 °F 83% 30.01 in 10.0 mi SSW 10.4 mph - N/A   Mostly Cloudy
12:35 PM 66.2 °F 60.8 °F 83% 30.01 in 10.0 mi South 9.2 mph - N/A   Overcast
12:54 PM 69.8 °F 60.8 °F 73% 30.00 in 10.0 mi South 11.5 mph - N/A   Mostly Cloudy
1:14 PM 68.0 °F 60.8 °F 78% 30.01 in 10.0 mi SSW 9.2 mph - N/A   Overcast
1:54 PM 68.0 °F 57.2 °F 68% 30.01 in 10.0 mi South 16.1 mph 20.7 mph N/A   Overcast
2:14 PM 68.0 °F 59.0 °F 73% 30.00 in 10.0 mi South 17.3 mph - N/A   Overcast
2:34 PM 66.2 °F 57.2 °F 73% 30.01 in 10.0 mi South 11.5 mph - N/A   Overcast
2:54 PM 66.2 °F 57.2 °F 73% 30.01 in 10.0 mi South 9.2 mph - N/A   Overcast
3:14 PM 66.2 °F 57.2 °F 73% 30.01 in 10.0 mi South 13.8 mph - N/A   Overcast
3:34 PM 64.4 °F 57.2 °F 77% 30.01 in 10.0 mi South 10.4 mph - N/A   Overcast
3:54 PM 64.4 °F 57.2 °F 77% 30.01 in 10.0 mi South 15.0 mph - N/A   Overcast
4:15 PM 64.4 °F 57.2 °F 77% 30.02 in 10.0 mi South 16.1 mph - N/A   Overcast
4:34 PM 62.6 °F 57.2 °F 82% 30.03 in 10.0 mi South 13.8 mph - N/A   Overcast
4:54 PM 64.4 °F 57.2 °F 77% 30.03 in 10.0 mi South 11.5 mph - N/A   Overcast
5:15 PM 64.4 °F 59.0 °F 83% 30.03 in 10.0 mi South 11.5 mph - N/A   Overcast
5:34 PM 64.4 °F 57.2 °F 77% 30.03 in 10.0 mi South 10.4 mph - N/A   Overcast
5:54 PM 64.4 °F 57.2 °F 77% 30.03 in 10.0 mi South 13.8 mph - N/A   Overcast
6:15 PM 64.4 °F 57.2 °F 77% 30.04 in 10.0 mi South 13.8 mph - N/A   Overcast
6:34 PM 64.4 °F 59.0 °F 83% 30.04 in 10.0 mi South 12.7 mph - N/A   Overcast
6:54 PM 64.4 °F 59.0 °F 83% 30.05 in 10.0 mi SSE 8.1 mph - N/A   Overcast
7:14 PM 64.4 °F 59.0 °F 83% 30.05 in 10.0 mi South 9.2 mph - N/A   Overcast
7:34 PM 64.4 °F 59.0 °F 83% 30.05 in 10.0 mi South 10.4 mph - N/A   Overcast
7:54 PM 64.4 °F 59.0 °F 83% 30.05 in 10.0 mi South 9.2 mph - N/A   Mostly Cloudy
8:14 PM 64.4 °F 59.0 °F 83% 30.05 in 10.0 mi South 12.7 mph - N/A   Overcast
8:34 PM 64.4 °F 59.0 °F 83% 30.06 in 10.0 mi South 11.5 mph - N/A   Overcast
9:14 PM 64.4 °F 59.0 °F 83% 30.06 in 10.0 mi South 10.4 mph - N/A   Overcast
9:34 PM 64.4 °F 59.0 °F 83% 30.06 in 10.0 mi South 10.4 mph - N/A   Overcast
9:55 PM 64.4 °F 59.0 °F 83% 30.07 in 10.0 mi South 8.1 mph - N/A   Mostly Cloudy
10:34 PM 62.6 °F 57.2 °F 82% 30.07 in 10.0 mi South 9.2 mph - N/A   Clear
10:55 PM 64.4 °F 59.0 °F 83% 30.08 in 10.0 mi SSE 9.2 mph - N/A   Mostly Cloudy
11:14 PM 64.4 °F 59.0 °F 83% 30.08 in 10.0 mi South 11.5 mph - N/A   Mostly Cloudy
11:34 PM 62.6 °F 59.0 °F 88% 30.08 in 10.0 mi South 11.5 mph - N/A   Scattered Clouds
11:55 PM 62.6 °F 59.0 °F 88% 30.08 in 10.0 mi South 11.5 mph - N/A   Overcast